Regional Weather Roundup
Issued by NWS

Home | Current Version | Previous Version | Text Only | Print | Product List | Glossary On
Versions: 1 2 3 4 5 6 7 8 9 10 11 12 13 14 15 16 17 18 19 20 21 22 23 24 25 26 27 28 29 30 31 32 33 34 35 36 37 38 39 40 41 42 43 44 45 46 47 48 49 50
000
ASHW40 PHFO 310810
RWRHI

WEATHER ROUNDUP FOR HAWAII
NATIONAL WEATHER SERVICE HONOLULU HI
1000 PM HST SAT AUG 30 2014

THIS IS AN AUTOMATED REPORT THAT HAS NOT BEEN QUALITY CONTROLLED.

NOTE..."FAIR" INDICATES FEW OR NO CLOUDS BELOW 12,000 FEET WITH NO
SIGNIFICANT WEATHER AND/OR OBSTRUCTIONS TO VISIBILITY.

* - THESE SITES REPORT LIMITED FIELDS

HIZ001>004-310900-
KAUAI-NIIHAU-

CITY           SKY/WX    TMP DP  RH WIND       PRES   REMARKS
LIHUE APT      PTCLDY    78  68  71 NE12      30.00R
PORT ALLEN*      N/A     79 N/A N/A E10G16      N/A
POIPU*           N/A     77 N/A N/A NE5         N/A
PRINCEVILLE*   NOT AVBL
KOKOLE POINT*  NOT AVBL
MOLOAA DAIRY*  NOT AVBL
WAIMEA HTS*    NOT AVBL
PUU OPAE*      NOT AVBL
PUU LUA*       NOT AVBL
MAKAHA RIDGE*  NOT AVBL
$$

HIZ005>011-310900-
OAHU-

CITY           SKY/WX    TMP DP  RH WIND       PRES   REMARKS
HONOLULU       PTCLDY    80  67  64 E6        29.97R
KALAELOA       CLEAR     75  67  76 CALM      29.99R
KANEOHE MCB    PTCLDY    77  69  76 E8        29.98R
WHEELER FIELD  DRIZZLE   72  66  83 NW3       30.00R
BELLOWS*       NOT AVBL
KAHUKU*        NOT AVBL
WHEELER*       NOT AVBL
WAIANAE HARBOR NOT AVBL
DILLINGHAM*      N/A     72  68  88 SE1         N/A
KAHUKU TRN*      N/A     75  68  78 E7G16       N/A
KAWAILOA*      NOT AVBL
KII*             N/A     79  70  73 E13G18      N/A
MAKUA RANGE*     N/A     75  66  73 E6G12       N/A
OAHU FOREST NW NOT AVBL
SCHOFIELD BRK*   N/A     68  64  88 MISG        N/A
SCHOFIELD S*   NOT AVBL
WAIANAE VLY*   NOT AVBL
KUAOKALA*      NOT AVBL
HONOULIUULI*   NOT AVBL
MOKUOLOE IS*     N/A    N/A N/A N/A MISG        N/A
PALEHUA*       NOT AVBL
WAIAWA PHB*    NOT AVBL
$$

HIZ012>013-310900-
MOLOKAI-

CITY           SKY/WX    TMP DP  RH WIND       PRES   REMARKS
MOLOKAI AIRPT  CLEAR     74  68  81 NE5       30.00R
KALAUPAPA      NOT AVBL
MAKAPULAPAI*   NOT AVBL
MOLOKAI 1*     NOT AVBL
PUU ALII*      NOT AVBL
$$

HIZ016-310900-
KAHOOLAWE-

CITY           SKY/WX    TMP DP  RH WIND       PRES   REMARKS
KAHOOLAWE*     NOT AVBL
HAKIOAWA*      NOT AVBL
HONOKANAIA*      N/A     79  69  70 NE8G23    29.99R
KANELOA*         N/A     73  66  78 NE12G20   29.21R
KEALIALALO*    NOT AVBL
LUA MAKIKA*    NOT AVBL
$$

HIZ014>015-310900-
LANAI-

CITY           SKY/WX    TMP DP  RH WIND       PRES   REMARKS
LANAI CITY     MOCLDY    71  68  90 E3        30.05R
LANAI 1*       NOT AVBL
$$

HIZ017>028-310900-
MAUI-

CITY           SKY/WX    TMP DP  RH WIND       PRES   REMARKS
KAHULUI        CLEAR     73  66  78 CALM      29.98R
KAPALUA-W MAUI NOT AVBL
HANA AIRPORT   MOCLDY    73  70  88 CALM      30.02S
HANA*          NOT AVBL
HALEAKALA SUMM   N/A     45  -4  13 E9          N/A
MAALAEA BAY*   NOT AVBL
HALEAKALA*     NOT AVBL
KAUPO GAP*     NOT AVBL
KULA 1*          N/A     46  45  93 E3G9        N/A
$$

HIZ023>026-310900-
BIG ISLAND OF HAWAII COAST AND LOWER SLOPES-

CITY           SKY/WX    TMP DP  RH WIND       PRES   REMARKS
KAILUA KONA    CLEAR     79  67  66 SE6       29.96R
HILO           MOCLDY    76  71  85 SW3       30.00R
HONOKAA*       NOT AVBL
KAWAIHAE MWT*  NOT AVBL
KAWAIHAE*        N/A     81 N/A N/A S3          N/A
SOUTH POINT*   NOT AVBL
UPOLU AIRPORT* NOT AVBL
KAMUELA*       PTSUNNY   64  63  94 NE9       30.10S
HAKALAU*         N/A     48  43  81 S7          N/A
KALOKO-HONOKO* NOT AVBL
PALI 2*          N/A     64  63  94 N8          N/A
KEALAKOMO*     NOT AVBL
KAUPULEHU*     NOT AVBL
KAPAPALA*        N/A     66  64  94 CALM        N/A
LOWER KAHUKU*  NOT AVBL
PUHE CS*       NOT AVBL
PUHO CS*       NOT AVBL
PTA KEAMUKU*     N/A     61  55  82 S6          N/A
WAIKOLOA*      NOT AVBL
$$

HIZ027>028-310900-
BIG ISLAND OF HAWAII INTERIOR AND SUMMMITS-

CITY           SKY/WX    TMP DP  RH WIND       PRES   REMARKS
BRADSHAW FIELD CLOUDY    52  49  89 W2        30.32S
MK VISITOR CEN NOT AVBL
MAUNA KEA*       N/A     46 -15   7 NW12        N/A
MAUNA LOA*       N/A     46 -11   8 MISG        N/A
MAUNA LOA 1*   NOT AVBL
PTA KIPUKA*      N/A     57  54  88 CALM        N/A
PTA RANGE 17*    N/A     57  52  82 SE5G13      N/A
PTA WEST*        N/A     57  54  88 SE6         N/A
NENE CABIN*    NOT AVBL
AHUMOA*        NOT AVBL
PTA PORTABLE*  NOT AVBL
PUU MALI*      NOT AVBL
$$

HIC003-310900-
NORTHWEST ISLANDS-

CITY           SKY/WX    TMP DP  RH WIND       PRES   REMARKS
MIDWAY ISLAND  CLEAR     73  72  94 NE7       30.02S
MIDWAY NOS*    NOT AVBL
FRENCH FRIGATE NOT AVBL
$$

PHZ110>124-180-310900-
BUOY REPORTS

STATION/POSITION TIME  TEMP    WIND        PRES    WAVE   SWELL
                       AIR SEA DIR/SP/G            HT/PER HT/DIR
                 (UTC) (F)     (DEG/KT/KT) (MB)    (FT/S) (FT/D)
BUOY 51001       NOT AVBL
BUOY 51101       NOT AVBL
BUOY 51100       NOT AVBL
BUOY 51003       0700   81 82   50/ 12/ 14 1014.0R   5/14   5
BUOY 51004       0738   80 81  120/ 16/ 17 1014.7R   6/13   5/140
BARBERS PT BUOY  NOT AVBL
WAIMEA BAY BUOY  0800      81                N/A     4/ 8   2/ 50
KAILUA BAY BUOY  0800      81                N/A     5/14   3/ 80
LANAI BUOY       NOT AVBL
BARBERS PT 2     0800      81                N/A     4/13   3/180
PAUWELA MAUI     0800      81                N/A     6/14   3/ 70
HILO             NOT AVBL
KANEOHE BAY BUOY 0800      81                N/A     5/14   3/ 60
HANALEI KAUAI    NOT AVBL
KAHULUI HARBOR   0800   77 83  160/  2/  2 1014.9R
HONOLULU HARBOR  0800   80     100/  3/  5 1015.5R
KILO NALU        NOT AVBL
HILO HARBOR      0800   77     200/  2/  3 1015.3R
MOKUOLOE         0800      84              1015.5R
NAWILIWILI       0800      83                N/A
WHOTS BUOY       NOT AVBL
BUOY 51028       NOT AVBL
$$

......................KEY........................................
  SKY/WX - SKY CONDITIONS/PRESENT WEATHER
  TMP    - TEMPERATURE IN FAHRENHEIT
  DWPT   - DEWPOINT IN FAHRENHEIT
  RH     - RELATIVE HUMIDITY IN PERCENT
  WIND   - DIRECTION AND SPEED /MPH FOR ISLANDS...KTS FOR BUOYS/
  PRES   - MEAN SEA LEVEL PRESSURE IN INCHES OF HG
  VSB    - VISIBILITY IN MILES
  HX     - HEAT INDEX
  WCI    - WIND CHILL INDEX
  VRB    - VARIABLE WIND DIRECTION
  N/A    - NOT AVAILABLE



USA.gov is the U.S. government's official web portal to all federal, state and local government web resources and services.